User: anonymous   Login
Location: Lussas
(44.6119°N, 4.4726°E)
Time: 02:19:08
(UTC+00:00)
Language:

Cosmos 2181 Rocket - Orbit

View from above orbital plane
View from above orbital plane
View from above satellite
View from above satellite

Ground track
Ground track

The orbit data is extracted from the following two-line orbital elements,

1 21903U 92012B   21060.57983412 -.00000072  00000-0 -91430-4 0  9999
2 21903  82.9331 261.1800 0041598 280.6536 179.9539 13.74518016453481
Epoch (UTC): 01 March 2021 13:54:57
Eccentricity: 0.0041598
inclination: 82.9331°
perigee height: 953 km
apogee height: 1014 km
right ascension of ascending node: 261.1800°
argument of perigee: 280.6536°
revolutions per day: 13.74518016
mean anomaly at epoch: 179.9539°
orbit number at epoch: 45348

The dashed part of the orbit path shows where the satellite is in the earth's shadow,  

DLR